Location: Columbia
(38.9520°N, 92.3340°W)
Time: 02:57:24
(UTC-05:00)

Cosmos 2219 Rocket - Visible Passes

Search period start: 01 September 2015 00:00
Search period end: 11 September 2015 00:00
Orbit: 828 x 847 km, 71.0° (Epoch: 30 August)

Date Brightness Start Highest point End Pass type
(mag) Time Alt. Az. Time Alt. Az. Time Alt. Az.
01 Sep 4.7 02:08:14 14° ENE 02:08:14 14° ENE 02:09:19 10° ENE visible
01 Sep 2.8 03:49:58 48° NNW 03:49:58 48° NNW 03:54:29 10° NNE visible
02 Sep 4.9 01:52:31 11° ENE 01:52:31 11° ENE 01:52:49 10° ENE visible
02 Sep 3.1 03:34:15 43° N 03:34:15 43° N 03:38:12 10° NNE visible
03 Sep 3.4 03:18:29 37° N 03:18:29 37° N 03:21:55 10° NNE visible
03 Sep 4.4 05:00:38 10° NW 05:01:31 10° NW 05:02:05 10° NW visible
04 Sep 3.7 03:02:42 31° N 03:02:42 31° N 03:05:38 10° NNE visible
04 Sep 4.3 04:44:26 11° NW 04:45:07 11° NW 04:46:32 10° NNW visible
05 Sep 4.0 02:46:54 26° NNE 02:46:54 26° NNE 02:49:20 10° NNE visible
05 Sep 4.4 04:28:38 12° NW 04:28:43 12° NW 04:30:39 10° NNW visible
06 Sep 4.3 02:31:04 22° NNE 02:31:04 22° NNE 02:33:02 10° NNE visible
06 Sep 4.4 04:12:47 13° NW 04:12:47 13° NW 04:14:41 10° NNW visible
07 Sep 4.5 02:15:12 19° NNE 02:15:12 19° NNE 02:16:43 10° NNE visible
07 Sep 4.4 03:56:56 13° NW 03:56:56 13° NW 03:58:37 10° NNW visible
08 Sep 4.7 01:59:19 16° NNE 01:59:19 16° NNE 02:00:24 10° NNE visible
08 Sep 4.5 03:41:03 13° NNW 03:41:03 13° NNW 03:42:32 10° NNW visible
09 Sep 4.9 01:43:25 14° NNE 01:43:25 14° NNE 01:44:05 10° NNE visible
09 Sep 4.6 03:25:09 13° NNW 03:25:09 13° NNW 03:26:25 10° NNW visible
10 Sep 5.0 01:27:30 11° NNE 01:27:30 11° NNE 01:27:46 10° NNE visible
10 Sep 4.6 03:09:13 13° NNW 03:09:13 13° NNW 03:10:16 10° NNW visible
